Weather History for Laramie, WY

Change the Weather History Date:

Tuesday, March 5, 2013

  Actual Average Record
Temperature  
Mean Temperature 24 °F 28 °F  
Max Temperature 44 °F 40 °F 65 °F (1987)
Min Temperature 3 °F 16 °F -16 °F (1963)
Degree Days  
Heating Degree Days 41 37  
Month to date heating degree days 173 187  
Since 1 July heating degree days 6077 6363  
Cooling Degree Days 0 0  
Month to date cooling degree days 0 0  
Year to date cooling degree days 0 0  
Moisture  
Dew Point 4 °F    
Average Humidity 53    
Maximum Humidity 88    
Minimum Humidity 18    
Precipitation  
Precipitation 0.00 in 0.01 in 0.70 in (1983)
Month to date precipitation T 0.07  
Year to date precipitation 0.57 0.68  
Sea Level Pressure  
Sea Level Pressure 30.19 in    
Wind  
Wind Speed 12 mph (SW)    
Max Wind Speed 26 mph    
Max Gust Speed 33 mph    
Visibility 10 miles    
Events      
T = Trace of Precipitation, MM = Missing Value Source: NWS Daily Summary

Daily Weather History Graph

Daily Weather History Graph

Search for Another Location

Airport:

Trip Planner

Search our weather history database for the weather conditions in past years. The results will help you decide how hot, cold, wet, or windy it might be!

Date:

Astronomy

Mar. 05, 2013 Rise Set
Actual Time 6:30 AM MST 5:58 PM MST
Civil Twilight 6:02 AM MST 6:26 PM MST
Nautical Twilight 5:30 AM MST 6:58 PM MST
Astronomical Twilight 4:58 AM MST 7:30 PM MST
Moon 1:47 AM MST (3/5) 11:37 AM MST (3/5)
Length of Visible Light 12h 23m
Length of Day
11h 28m
Last Quarter, 40% of the Moon is Illuminated
Mar 5
Last Quarter
Mar 11
New
Mar 19
First Quarter
Mar 27
Full
Apr 2
Last Quarter

Hourly Weather History & Observations

Time (MST) Temp. Windchill Dew Point Humidity Pressure Visibility Wind Dir Wind Speed Gust Speed Precip Events Conditions
12:53 AM 9.0 °F - 3.0 °F 77% 30.35 in 10.0 mi Calm Calm - N/A   Clear
1:53 AM 7.0 °F - 1.0 °F 77% 30.34 in 10.0 mi Calm Calm - N/A   Clear
2:53 AM 7.0 °F -1.7 °F 3.0 °F 84% 30.32 in 10.0 mi SSW 4.6 mph - N/A   Clear
3:53 AM 9.0 °F -4.2 °F 1.9 °F 73% 30.30 in 10.0 mi WSW 9.2 mph - N/A   Clear
4:53 AM 12.0 °F -2.0 °F 3.9 °F 70% 30.31 in 10.0 mi SW 11.5 mph - N/A   Clear
6:53 AM 16.0 °F -0.9 °F 3.0 °F 57% 30.30 in 10.0 mi SW 19.6 mph - N/A   Clear
7:53 AM 21.9 °F 9.2 °F 3.9 °F 46% 30.30 in 10.0 mi SW 13.8 mph - N/A   Clear
8:53 AM 28.0 °F 16.5 °F 3.0 °F 34% 30.27 in 10.0 mi SSW 15.0 mph - N/A   Clear
9:53 AM 33.1 °F 22.2 °F 3.0 °F 28% 30.23 in 10.0 mi WSW 17.3 mph 24.2 mph N/A   Clear
10:53 AM 36.0 °F 24.2 °F 5.0 °F 27% 30.21 in 10.0 mi SW 24.2 mph 29.9 mph N/A   Clear
11:53 AM 37.9 °F 27.6 °F 3.0 °F 23% 30.19 in 10.0 mi SSW 20.7 mph 28.8 mph N/A   Clear
12:53 PM 43.0 °F 34.2 °F 3.0 °F 19% 30.15 in - SW 20.7 mph 26.5 mph N/A   Clear
2:21 PM 42.8 °F 38.6 °F 3.2 °F 19% 30.08 in 10.0 mi Variable 6.9 mph 28.8 mph N/A   Clear
2:53 PM 44.1 °F 39.0 °F 5.0 °F 20% 30.14 in 10.0 mi North 9.2 mph - N/A   Clear
3:53 PM 44.1 °F 41.5 °F 6.1 °F 21% 30.13 in - NNE 4.6 mph - N/A   Clear
4:53 PM 39.9 °F 36.7 °F 8.1 °F 27% 30.14 in 10.0 mi NNE 4.6 mph - N/A   Clear
5:53 PM 36.0 °F 30.3 °F 7.0 °F 30% 30.14 in - WSW 6.9 mph - N/A   Clear
6:53 PM 33.1 °F 24.9 °F 5.0 °F 31% 30.14 in 10.0 mi WSW 10.4 mph - N/A   Clear
7:53 PM 32.0 °F 25.6 °F 3.0 °F 29% 30.12 in 10.0 mi West 6.9 mph - N/A   Clear
8:53 PM 28.9 °F 19.2 °F 6.1 °F 38% 30.09 in - SW 11.5 mph - N/A   Clear
9:53 PM 25.0 °F 13.1 °F 7.0 °F 46% 30.09 in 10.0 mi South 13.8 mph - N/A   Clear
10:53 PM 24.1 °F 14.4 °F 8.1 °F 51% 30.08 in 10.0 mi South 9.2 mph - N/A   Clear
11:53 PM 21.9 °F 14.5 °F 8.1 °F 55% 30.06 in 10.0 mi South 5.8 mph - N/A   Clear